| time (UTC) | temp F | wind direction | speed knots | gust knots | rain 1hr in | rain 24hr in | rain mn in | humidity % | barometer mb |
| 20260504013035 | 75 | 182 | 1.7 | 9.6 | 0.00 | 0.00 | 0.00 | 37 | 993.4 |
| 20260504011529 | 76 | 186 | 2.6 | 7.0 | 0.00 | 0.00 | 0.00 | 37 | 993.4 |
| 20260504010027 | 76 | 203 | 5.2 | 13.0 | 0.00 | 0.00 | 0.00 | 35 | 993.4 |
| 20260504004526 | 77 | 194 | 1.7 | 9.6 | 0.00 | 0.00 | 0.00 | 36 | 993.3 |
| 20260504003023 | 77 | 221 | 1.7 | 9.6 | 0.00 | 0.00 | 0.00 | 36 | 993.4 |
| 20260504001523 | 78 | 177 | 2.6 | 6.1 | 0.00 | 0.00 | 0.00 | 35 | 993.3 |
| 20260504000020 | 79 | 175 | 1.7 | 9.6 | 0.00 | 0.00 | 0.00 | 34 | 993.5 |
| 20260503234521 | 79 | 219 | 2.6 | 10.4 | 0.00 | 0.00 | 0.00 | 34 | 993.6 |
| 20260503233019 | 80 | 205 | 0.9 | 8.7 | 0.00 | 0.00 | 0.00 | 33 | 993.6 |
| 20260503231515 | 81 | 190 | 2.6 | 6.1 | 0.00 | 0.00 | 0.00 | 32 | 993.9 |
| 20260503230012 | 81 | 112 | 3.5 | 7.8 | 0.00 | 0.00 | 0.00 | 31 | 993.8 |
| 20260503224511 | 81 | 197 | 3.5 | 12.2 | 0.00 | 0.00 | 0.00 | 33 | 994.0 |
| 20260503223010 | 82 | 180 | 4.3 | 12.2 | 0.00 | 0.00 | 0.00 | 31 | 993.9 |
| 20260503221507 | 82 | 203 | 2.6 | 7.8 | 0.00 | 0.00 | 0.00 | 33 | 994.2 |
| 20260503220005 | 83 | 207 | 2.6 | 8.7 | 0.00 | 0.00 | 0.00 | 30 | 994.4 |
| 20260503214507 | 82 | 149 | 4.3 | 9.6 | 0.00 | 0.00 | 0.00 | 28 | 994.5 |
| 20260503213002 | 83 | 110 | 1.7 | 8.7 | 0.00 | 0.00 | 0.00 | 30 | 994.6 |
| 20260503211600 | 83 | 198 | 3.5 | 7.8 | 0.00 | 0.00 | 0.00 | 30 | 994.9 |
| 20260503210100 | 84 | 217 | 2.6 | 7.8 | 0.00 | 0.00 | 0.00 | 30 | 995.1 |
| 20260503204557 | 82 | 221 | 3.5 | 9.6 | 0.00 | 0.00 | 0.00 | 31 | 995.5 |
| 20260503203057 | 83 | 205 | 2.6 | 7.8 | 0.00 | 0.00 | 0.00 | 31 | 995.8 |
| 20260503201552 | 83 | 191 | 1.7 | 8.7 | 0.00 | 0.00 | 0.00 | 32 | 996.0 |
| 20260503200055 | 82 | 326 | 2.6 | 7.8 | 0.00 | 0.00 | 0.00 | 32 | 996.2 |
| 20260503194555 | 82 | 149 | 1.7 | 7.8 | 0.00 | 0.00 | 0.00 | 33 | 996.5 |
| 20260503193044 | 82 | 167 | 4.3 | 10.4 | 0.00 | 0.00 | 0.00 | 31 | 996.8 |
| 20260503191541 | 82 | 285 | 1.7 | 7.0 | 0.00 | 0.00 | 0.00 | 34 | 997.0 |
| 20260503190038 | 82 | 160 | 1.7 | 6.1 | 0.00 | 0.00 | 0.00 | 35 | 997.4 |
| 20260503184535 | 81 | 259 | 1.7 | 9.6 | 0.00 | 0.00 | 0.00 | 35 | 997.5 |
| 20260503183034 | 81 | 257 | 2.6 | 7.0 | 0.00 | 0.00 | 0.00 | 35 | 997.7 |
| 20260503181529 | 80 | 84 | 2.6 | 7.0 | 0.00 | 0.00 | 0.00 | 38 | 998.0 |
| 20260503180027 | 80 | 192 | 3.5 | 7.0 | 0.00 | 0.00 | 0.00 | 36 | 998.3 |
| 20260503174523 | 79 | 243 | 3.5 | 9.6 | 0.00 | 0.00 | 0.00 | 39 | 998.6 |
| 20260503173027 | 79 | 262 | 0.9 | 9.6 | 0.00 | 0.00 | 0.00 | 43 | 998.8 |
| 20260503171517 | 78 | 210 | 2.6 | 8.7 | 0.00 | 0.00 | 0.00 | 45 | 999.1 |
| 20260503081556 | 61 | 230 | 0.0 | 2.6 | 0.00 | 0.00 | 0.00 | 67 | 998.2 |
| 20260503071610 | 63 | 245 | 0.0 | 2.6 | 0.00 | 0.00 | 0.00 | 62 | 998.6 |
| 20260503060103 | 61 | 179 | 0.0 | 0.0 | 0.00 | 0.00 | 0.00 | 68 | 998.6 |
| 20260503054555 | 61 | 179 | 0.0 | 0.0 | 0.00 | 0.00 | 0.00 | 66 | 998.4 |
| 20260503053040 | 62 | 179 | 0.0 | 0.0 | 0.00 | 0.00 | 0.00 | 66 | 998.4 |
| 20260503051537 | 63 | 179 | 0.0 | 0.0 | 0.00 | 0.00 | 0.00 | 66 | 998.3 |
| 20260503050038 | 62 | 229 | 0.0 | 1.7 | 0.00 | 0.00 | 0.00 | 72 | 998.2 |
| 20260503044533 | 62 | 216 | 0.0 | 0.0 | 0.00 | 0.00 | 0.00 | 73 | 998.2 |
| 20260503043034 | 61 | 216 | 0.0 | 0.0 | 0.00 | 0.00 | 0.00 | 73 | 998.1 |
| 20260503041538 | 62 | 216 | 0.0 | 0.0 | 0.00 | 0.00 | 0.00 | 72 | 998.2 |
| 20260503040031 | 62 | 216 | 0.0 | 0.0 | 0.00 | 0.00 | 0.00 | 72 | 998.2 |
| 20260503034532 | 62 | 216 | 0.0 | 0.0 | 0.00 | 0.00 | 0.00 | 72 | 998.2 |
| 20260503033035 | 62 | 216 | 0.0 | 0.0 | 0.00 | 0.00 | 0.00 | 71 | 998.1 |
| 20260503031530 | 63 | 216 | 0.0 | 0.0 | 0.00 | 0.00 | 0.00 | 69 | 998.1 |
| 20260503030038 | 64 | 216 | 0.0 | 0.0 | 0.00 | 0.00 | 0.00 | 67 | 997.9 |
| 20260503024529 | 64 | 216 | 0.0 | 0.0 | 0.00 | 0.00 | 0.00 | 65 | 997.8 |
| 20260503023027 | 65 | 216 | 0.0 | 0.0 | 0.00 | 0.00 | 0.00 | 64 | 997.7 |
| 20260503021526 | 66 | 216 | 0.0 | 0.0 | 0.00 | 0.00 | 0.00 | 62 | 997.6 |
| 20260503020027 | 66 | 216 | 0.0 | 0.0 | 0.00 | 0.00 | 0.00 | 60 | 997.4 |
| 20260503014526 | 68 | 216 | 0.0 | 0.0 | 0.00 | 0.00 | 0.00 | 57 | 997.4 |